Akron Canton, OH

5:56 AM EDT on April 22, 2018 (GMT -0400)
Akron-Canton Regional

Weather History for KCAK - July, 2012

Change the Weather History Date:

Sunday, July 15, 2012

  Actual Average Record
Temperature  
Mean Temperature 78 °F 72 °F  
Max Temperature 86 °F 82 °F 96 °F (1983)
Min Temperature 69 °F 62 °F 46 °F (1930)
Degree Days  
Heating Degree Days 0 0  
Month to date heating degree days 0 0  
Since 1 June heating degree days 26 49  
Since 1 July heating degree days 0 0  
Cooling Degree Days 13 7  
Month to date cooling degree days 203 105  
Year to date cooling degree days 553 282  
Since 1 June cooling degree days 407 240  
Growing Degree Days 28 (Base 50)    
Moisture  
Dew Point 66 °F    
Average Humidity 68    
Maximum Humidity 84    
Minimum Humidity 51    
Precipitation  
Precipitation 1.11 in 0.14 in 1.17 in (1992)
Month to date precipitation 1.50 1.98  
Year to date precipitation 15.53 21.54  
Snow  
Snow 0.00 in 0.00 in - ()
Month to date snowfall 0.0 0.0  
Since 1 June snowfall 0.0 0.0  
Since 1 July snowfall 0.0 0.0  
Snow Depth 0.00 in    
Sea Level Pressure  
Sea Level Pressure 30.06 in    
Wind  
Wind Speed 9 mph (SW)    
Max Wind Speed 48 mph    
Max Gust Speed 61 mph    
Visibility 7 miles    
Events Rain , Thunderstorm    
T = Trace of Precipitation, MM = Missing Value Source: NWS Daily Summary

Daily Weather History Graph

Daily Weather History Graph

Search for Another Location

Airport or City:

Astronomy

Jul. 15, 2012 Rise Set
Actual Time 6:07 AM EDT 8:55 PM EDT
Civil Twilight 5:34 AM EDT 9:28 PM EDT
Nautical Twilight 4:53 AM EDT 10:09 PM EDT
Astronomical Twilight 4:06 AM EDT 10:55 PM EDT
Moon 3:02 AM EDT (7/15) 6:11 PM EDT (7/15)
Length of Visible Light 15h 53m
Length of Day
14h 48m
Waning Crescent, 12% of the Moon is Illuminated
Jul 15
Waning Crescent
Jul 19
New
Jul 26
First Quarter
Aug 1
Full
Aug 9
Last Quarter

Hourly Weather History & Observations

Time (EDT) Temp. Heat Index Dew Point Humidity Pressure Visibility Wind Dir Wind Speed Gust Speed Precip Events Conditions
12:51 AM 75.9 °F - 66.0 °F 71% 30.09 in 10.0 mi SSW 8.1 mph - N/A   Mostly Cloudy
1:51 AM 75.9 °F - 66.0 °F 71% 30.09 in 10.0 mi SSW 8.1 mph - N/A   Mostly Cloudy
2:51 AM 75.0 °F - 66.9 °F 76% 30.08 in 10.0 mi SSW 10.4 mph - 0.00 in   Overcast
3:51 AM 73.9 °F - 66.9 °F 79% 30.08 in 10.0 mi SSW 10.4 mph - 0.00 in   Overcast
4:51 AM 73.0 °F - 66.0 °F 79% 30.07 in 10.0 mi SSW 9.2 mph - 0.00 in Rain Light Rain
5:51 AM 72.0 °F - 66.0 °F 81% 30.08 in 10.0 mi SSW 6.9 mph - 0.00 in   Mostly Cloudy
6:51 AM 72.0 °F - 66.0 °F 81% 30.08 in 7.0 mi SW 10.4 mph - N/A   Mostly Cloudy
7:51 AM 73.0 °F - 66.0 °F 79% 30.09 in 6.0 mi SW 8.1 mph - N/A   Haze
8:51 AM 75.0 °F - 66.9 °F 76% 30.10 in 6.0 mi WSW 9.2 mph - N/A   Haze
9:27 AM 75.2 °F - 66.2 °F 73% 30.13 in 6.0 mi WSW 10.4 mph - N/A   Haze
9:51 AM 75.9 °F - 66.9 °F 74% 30.11 in 6.0 mi West 10.4 mph 16.1 mph N/A   Haze
10:51 AM 78.1 °F - 66.9 °F 68% 30.11 in 6.0 mi WSW 11.5 mph - N/A   Haze
10:58 AM 78.8 °F - 66.2 °F 65% 30.13 in 6.0 mi WSW 12.7 mph - N/A   Haze
11:51 AM 77.0 °F - 66.9 °F 71% 30.11 in 6.0 mi West 8.1 mph - 0.00 in Rain Light Rain
12:51 PM 79.0 °F - 66.9 °F 66% 30.09 in 6.0 mi WSW 8.1 mph - 0.00 in Rain Light Rain
12:59 PM 78.8 °F - 68.0 °F 69% 30.12 in 4.0 mi WSW 10.4 mph - 0.00 in Rain , Thunderstorm Light Thunderstorms and Rain
1:14 PM 73.4 °F - 69.8 °F 88% 30.13 in 1.0 mi West 11.5 mph - 0.20 in Rain , Thunderstorm Heavy Thunderstorms and Rain
1:37 PM 73.4 °F - 68.0 °F 83% 30.12 in 3.0 mi SW 8.1 mph - 0.42 in Rain , Thunderstorm Light Thunderstorms and Rain
1:51 PM 75.0 °F - 68.0 °F 79% 30.09 in 6.0 mi SW 5.8 mph - 0.42 in   Haze
2:51 PM 81.0 °F 83.8 °F 68.0 °F 65% 30.05 in 6.0 mi SW 15.0 mph - N/A   Haze
3:51 PM 84.0 °F 86.3 °F 66.0 °F 55% 30.01 in 8.0 mi SW 11.5 mph - N/A   Scattered Clouds
4:51 PM 84.9 °F 87.1 °F 66.0 °F 53% 29.99 in 8.0 mi SW 13.8 mph - N/A   Scattered Clouds
5:51 PM 86.0 °F 88.2 °F 66.0 °F 51% 29.99 in 8.0 mi WSW 10.4 mph - N/A   Scattered Clouds
6:34 PM 84.2 °F 86.6 °F 66.2 °F 55% 30.01 in 8.0 mi SW 9.2 mph - N/A Thunderstorm Thunderstorm
6:51 PM 84.0 °F 86.3 °F 66.0 °F 55% 29.99 in 8.0 mi WNW 5.8 mph - 0.00 in Rain , Thunderstorm Light Thunderstorms and Rain
7:00 PM 71.6 °F - 64.4 °F 78% 30.04 in - NNW 34.5 mph 44.9 mph 0.00 in Rain , Thunderstorm Light Thunderstorms and Rain
7:04 PM 69.8 °F - 62.6 °F 78% 30.03 in 0.8 mi NNW 48.3 mph 61.0 mph 0.05 in Rain , Thunderstorm Heavy Thunderstorms and Rain
7:08 PM 69.8 °F - 62.6 °F 78% 30.08 in 0.1 mi NE 27.6 mph 61.0 mph 0.16 in Rain , Thunderstorm Heavy Thunderstorms and Rain
7:15 PM 71.6 °F - 64.4 °F 78% 30.03 in 0.1 mi East 12.7 mph 50.6 mph 0.69 in Rain , Thunderstorm Heavy Thunderstorms and Rain
7:17 PM 73.4 °F - 64.4 °F 73% 30.03 in 3.0 mi East 12.7 mph 41.4 mph 0.69 in Rain , Thunderstorm Light Thunderstorms and Rain
7:29 PM 73.4 °F - 62.6 °F 69% 30.02 in 9.0 mi East 3.5 mph 21.9 mph 0.69 in Thunderstorm Thunderstorm
7:51 PM 73.0 °F - 64.9 °F 76% 30.00 in 10.0 mi SSW 4.6 mph - 0.69 in   Scattered Clouds
8:51 PM 73.0 °F - 64.9 °F 76% 30.01 in 9.0 mi South 5.8 mph - N/A   Scattered Clouds
9:51 PM 72.0 °F - 66.0 °F 81% 30.01 in 10.0 mi South 4.6 mph - N/A   Scattered Clouds
10:51 PM 72.0 °F - 66.0 °F 81% 30.02 in 9.0 mi SW 5.8 mph - N/A   Scattered Clouds
11:51 PM 73.0 °F - 66.0 °F 79% 30.02 in 9.0 mi WSW 5.8 mph - N/A   Scattered Clouds